Content
SEND FEEDBACK

Daily
Averages
Monthly
Summary
United States of America

TRENTON, NORTH DAKOTA


Home > North America > United States > North Dakota
Elevation: 192 feet     Latitude: 48 01N     Longitude: 104 08W

WEATHER
 
SELECT A DAY
Number of Records: 459,116;   Date Range: 1/1/95 - 10/22/14
 
SHARE

PRINT THIS DATA

[ ← Previous Day ]
WEATHER ALMANAC - JANUARY 31, 2013
[ Next Day → ]
[ °C ]   °F
Weather ElementAverageHighLow
Temperature-7.2 °F6.8 °F (11:15 pm)-16.6 °F (4:35 am)
Dewpoint-15.7 °F1.4 °F (11:55 pm)-25.6 °F (5:55 am)
Humidity66.3 %84 % (8:15 am)54 % (1:15 pm)
Barometer30.25 in30.37 in (11:15 am)30.01 in (11:55 pm)
Wind Speed10 mph17.3 mph (12:55 am)
Weather ElementAverage
Visibility10 mi
Wind DirectionWSW (252.7 °)

Weather ElementTotal
Precipitation---
Heating Degree Days69.9 (Base 65)
Averaged from 63 records on January 31, 2013
WEATHER CONDITIONS BREAKOUT
WIND DIRECTION BREAKOUT
WEATHER BY HOUR - JANUARY 31, 2013
[ °C ]   °F
Local TimeTemperatureDewpointHumidityBarometerVisibilityWind DirectionWind SpeedGust SpeedPrecipitationEventsConditions
12:35 AM-11.2 °F-18.4 °F70 %30.20 in10.0 miNNW (340°)15.0 mphOvercast
12:55 AM-11.2 °F-16.6 °F77 %30.22 in8.0 miNNW (330°)17.3 mphMostly Cloudy
1:15 AM-11.2 °F-20.2 °F64 %30.23 in10.0 miNNW (340°)11.5 mphMostly Cloudy
1:35 AM-11.2 °F-20.2 °F64 %30.23 in10.0 miNNW (340°)16.1 mphMostly Cloudy
2:15 AM-14.8 °F-20.2 °F77 %30.25 in10.0 miNNW (340°)15.0 mphClear
2:35 AM-14.8 °F-23.8 °F64 %30.26 in10.0 miNNW (330°)12.7 mphClear
2:55 AM-14.8 °F-20.2 °F77 %30.28 in10.0 miNW (320°)10.4 mphClear
3:15 AM-14.8 °F-22.0 °F70 %30.29 in10.0 miNW (320°)10.4 mphClear
3:35 AM-14.8 °F-22.0 °F70 %30.28 in10.0 miNW (320°)12.7 mphClear
3:55 AM-14.8 °F-23.8 °F64 %30.29 in10.0 miNW (310°)11.5 mphClear
4:35 AM-16.6 °F-23.8 °F70 %30.32 in10.0 miWNW (300°)10.4 mphClear
4:55 AM-16.6 °F-23.8 °F70 %30.32 in10.0 miWNW (300°)9.2 mphClear
5:15 AM-16.6 °F-23.8 °F70 %30.33 in10.0 miWNW (300°)10.4 mphClear
5:35 AM-16.6 °F-22.0 °F76 %30.33 in10.0 miNW (310°)9.2 mphClear
5:55 AM-16.6 °F-25.6 °F64 %30.33 in10.0 miNW (310°)9.2 mphClear
6:15 AM-16.6 °F-25.6 °F64 %30.33 in10.0 miNW (310°)8.1 mphClear
6:35 AM-16.6 °F-22.0 °F76 %30.33 in10.0 miNW (310°)11.5 mphClear
6:55 AM-16.6 °F-23.8 °F70 %30.33 in10.0 miWNW (300°)13.8 mphClear
7:15 AM-16.6 °F-25.6 °F64 %30.35 in10.0 miWNW (290°)12.7 mphClear
7:35 AM-16.6 °F-23.8 °F70 %30.35 in10.0 miWNW (300°)12.7 mphClear
7:55 AM-16.6 °F-22.0 °F76 %30.35 in10.0 miWNW (290°)12.7 mphClear
8:15 AM-16.6 °F-20.2 °F84 %30.36 in10.0 miWest (280°)12.7 mphClear
8:35 AM-16.6 °F-22.0 °F76 %30.36 in10.0 miWest (280°)12.7 mphClear
9:55 AM-13.0 °F-22.0 °F64 %30.36 in10.0 miWest (270°)10.4 mphClear
10:15 AM-13.0 °F-22.0 °F64 %30.36 in10.0 miWest (280°)11.5 mphClear
10:35 AM-11.2 °F-22.0 °F59 %30.36 in10.0 miWest (280°)10.4 mphClear
10:55 AM-11.2 °F-20.2 °F64 %30.36 in10.0 miWest (280°)9.2 mphClear
11:15 AM-9.4 °F-18.4 °F65 %30.37 in10.0 miWest (270°)11.5 mphClear
11:35 AM-9.4 °F-18.4 °F65 %30.35 in10.0 miWest (270°)11.5 mphClear
11:55 AM-9.4 °F-20.2 °F59 %30.34 in10.0 miWest (280°)12.7 mphClear
12:15 PM-9.4 °F-18.4 °F65 %30.34 in10.0 miWest (260°)10.4 mphClear
12:35 PM-9.4 °F-16.6 °F71 %30.33 in10.0 miWest (260°)10.4 mphClear
12:55 PM-7.6 °F-18.4 °F59 %30.32 in10.0 miWSW (250°)10.4 mphClear
1:15 PM-7.6 °F-20.2 °F54 %30.30 in10.0 miWSW (240°)6.9 mphClear
1:35 PM-7.6 °F-16.6 °F65 %30.29 in10.0 miWSW (250°)8.1 mphClear
1:55 PM-5.8 °F-18.4 °F55 %30.28 in10.0 miSW (230°)6.9 mphClear
2:15 PM-5.8 °F-16.6 °F60 %30.27 in10.0 miSW (230°)5.8 mphClear
2:35 PM-5.8 °F-18.4 °F55 %30.27 in10.0 miSW (220°)5.8 mphClear
2:55 PM-5.8 °F-14.8 °F65 %30.27 in10.0 miWSW (240°)4.6 mphClear
3:15 PM-4.0 °F-16.6 °F55 %30.26 in10.0 miSW (230°)8.1 mphClear
3:35 PM-4.0 °F-16.6 °F55 %30.25 in10.0 miSW (230°)5.8 mphPartly Cloudy
3:55 PM-2.2 °F-14.8 °F55 %30.24 in10.0 miSW (220°)6.9 mphMostly Cloudy
4:15 PM-2.2 °F-14.8 °F55 %30.24 in10.0 miSW (220°)8.1 mphOvercast
4:35 PM-0.4 °F0.0 °F30.23 in10.0 miSW (230°)6.9 mphOvercast
5:15 PM-0.4 °F-11.2 °F60 %30.20 in10.0 miSSW (210°)8.1 mphOvercast
5:35 PM-0.4 °F-9.4 °F66 %30.19 in10.0 miSSW (210°)8.1 mphOvercast
6:15 PM-0.4 °F-9.4 °F66 %30.18 in10.0 miSouth (170°)8.1 mphOvercast
6:35 PM1.4 °F-9.4 °F61 %30.16 in10.0 miSouth (190°)8.1 mphOvercast
6:55 PM1.4 °F-9.4 °F61 %30.16 in10.0 miSouth (190°)10.4 mphOvercast
7:15 PM1.4 °F-7.6 °F66 %30.15 in10.0 miSouth (180°)8.1 mphOvercast
7:35 PM1.4 °F-9.4 °F61 %30.16 in10.0 miSouth (180°)8.1 mphOvercast
7:55 PM1.4 °F-5.8 °F72 %30.14 in10.0 miSouth (190°)8.1 mphOvercast
8:15 PM1.4 °F-7.6 °F66 %30.14 in10.0 miSouth (180°)8.1 mphOvercast
8:35 PM1.4 °F-7.6 °F66 %30.13 in10.0 miSouth (180°)8.1 mphOvercast
8:55 PM3.2 °F-5.8 °F66 %30.12 in10.0 miSouth (180°)8.1 mphOvercast
9:15 PM3.2 °F-5.8 °F66 %30.10 in10.0 miSouth (170°)9.2 mphOvercast
9:35 PM3.2 °F-4.0 °F72 %30.10 in10.0 miSouth (180°)8.1 mphOvercast
9:55 PM3.2 °F-5.8 °F66 %30.09 in10.0 miSouth (180°)9.2 mphOvercast
10:15 PM3.2 °F-4.0 °F72 %30.07 in10.0 miSouth (180°)10.4 mphOvercast
10:35 PM5.0 °F-2.2 °F72 %30.07 in10.0 miSouth (190°)8.1 mphOvercast
11:15 PM6.8 °F-2.2 °F67 %30.02 in10.0 miSouth (190°)12.7 mphOvercast
11:35 PM6.8 °F-0.4 °F72 %30.02 in10.0 miSouth (180°)12.7 mphMostly Cloudy
11:55 PM6.8 °F1.4 °F79 %30.01 in10.0 miSouth (180°)10.4 mphOvercast
Hourly data recorded from KSDY, located miles away from Trenton, North Dakota







STORIES FROM OUR PARTNERS